• In Italy
  • List of Countries
  • For 7 days
  • Water Temperature
  • Satellite Maps
  • Weather Map
  • Weather Widgets
  • user-avatar
    Login

    Hourly Weather Madras

    Today, 20 November, Monday

    Time Temperature Precipitation Wind Pressure Humidity
    00:00 +28°C° 1.4 mm 2 mps 758 mmHg 86%
    01:00 +28°C° 1.4 mm 2 mps 757 mmHg 87%
    02:00 +27°C° 1.4 mm 2 mps 757 mmHg 88%
    03:00 +27°C° 1 mm 2 mps 757 mmHg 88%
    04:00 +27°C° 1 mm 2 mps 757 mmHg 88%
    05:00 +27°C° 0 mm 2 mps 757 mmHg 89%
    06:00 +28°C° 0.1 mm 2 mps 758 mmHg 85%
    07:00 +29°C° 0.1 mm 2 mps 758 mmHg 81%
    08:00 +30°C° 0.1 mm 2 mps 758 mmHg 77%
    09:00 +31°C° 0.1 mm 3 mps 758 mmHg 73%
    10:00 +33°C° 0.1 mm 3 mps 758 mmHg 68%
    11:00 +34°C° 0.1 mm 4 mps 758 mmHg 63%
    12:00 +34°C° 0.1 mm 4 mps 757 mmHg 63%
    13:00 +34°C° 0.1 mm 5 mps 757 mmHg 63%
    14:00 +34°C° 0.1 mm 5 mps 756 mmHg 63%
    15:00 +33°C° 0 mm 5 mps 756 mmHg 68%
    16:00 +32°C° 0 mm 4 mps 756 mmHg 73%
    17:00 +30°C° 0 mm 4 mps 756 mmHg 78%
    18:00 +29°C° 0 mm 4 mps 756 mmHg 80%
    19:00 +29°C° 0 mm 4 mps 757 mmHg 82%
    20:00 +28°C° 0 mm 3 mps 758 mmHg 85%
    21:00 +28°C° 0.5 mm 3 mps 758 mmHg 86%
    22:00 +28°C° 0.5 mm 3 mps 758 mmHg 88%
    23:00 +28°C° 0.5 mm 3 mps 758 mmHg 89%

    Tomorrow, 21 November, Tuesday

    Time Temperature Precipitation Wind Pressure Humidity
    00:00 +28°C° 0.8 mm 3 mps 757 mmHg 90%
    01:00 +27°C° 0.8 mm 3 mps 757 mmHg 91%
    02:00 +27°C° 0.8 mm 3 mps 756 mmHg 91%
    03:00 +27°C° 0.7 mm 2 mps 756 mmHg 91%
    04:00 +27°C° 0.7 mm 2 mps 756 mmHg 92%
    05:00 +27°C° 0.7 mm 2 mps 757 mmHg 92%
    06:00 +28°C° 0.3 mm 2 mps 757 mmHg 87%
    07:00 +29°C° 0.3 mm 3 mps 758 mmHg 83%
    08:00 +30°C° 0.3 mm 3 mps 758 mmHg 78%
    09:00 +31°C° 0.1 mm 3 mps 758 mmHg 73%
    10:00 +33°C° 0.1 mm 4 mps 758 mmHg 68%
    11:00 +34°C° 0.1 mm 4 mps 758 mmHg 63%
    12:00 +34°C° 0.1 mm 4 mps 757 mmHg 63%
    13:00 +34°C° 0.1 mm 5 mps 756 mmHg 63%
    14:00 +34°C° 0.1 mm 5 mps 755 mmHg 63%
    15:00 +33°C° 0 mm 5 mps 755 mmHg 68%
    16:00 +32°C° 0 mm 4 mps 755 mmHg 73%
    17:00 +30°C° 0 mm 4 mps 755 mmHg 78%
    18:00 +29°C° 0 mm 4 mps 756 mmHg 80%
    19:00 +29°C° 0 mm 4 mps 757 mmHg 82%
    20:00 +28°C° 0 mm 4 mps 757 mmHg 84%
    21:00 +28°C° 0 mm 3 mps 757 mmHg 85%
    22:00 +28°C° 0 mm 3 mps 757 mmHg 86%
    23:00 +28°C° 0 mm 3 mps 757 mmHg 87%

    Day after tomorrow, 22 November, Wednesday

    Time Temperature Precipitation Wind Pressure Humidity
    00:00 +28°C° 0.2 mm 3 mps 757 mmHg 88%
    01:00 +27°C° 0.2 mm 3 mps 756 mmHg 89%
    02:00 +27°C° 0.2 mm 3 mps 756 mmHg 90%
    03:00 +27°C° 0.6 mm 3 mps 756 mmHg 90%
    04:00 +27°C° 0.6 mm 4 mps 756 mmHg 90%
    05:00 +27°C° 0.6 mm 4 mps 756 mmHg 91%
    06:00 +28°C° 0.6 mm 4 mps 756 mmHg 86%
    07:00 +29°C° 0.6 mm 4 mps 757 mmHg 81%
    08:00 +30°C° 0.6 mm 4 mps 758 mmHg 77%
    09:00 +32°C° 0.3 mm 5 mps 757 mmHg 73%
    10:00 +33°C° 0.3 mm 5 mps 757 mmHg 69%
    11:00 +33°C° 0.3 mm 6 mps 757 mmHg 65%
    12:00 +33°C° 0 mm 6 mps 756 mmHg 65%
    13:00 +33°C° 0 mm 6 mps 755 mmHg 64%
    14:00 +33°C° 0 mm 6 mps 755 mmHg 64%
    15:00 +32°C° 0 mm 6 mps 755 mmHg 68%
    16:00 +30°C° 0 mm 6 mps 755 mmHg 73%
    17:00 +29°C° 0 mm 6 mps 755 mmHg 77%
    18:00 +29°C° 0 mm 6 mps 756 mmHg 79%
    19:00 +29°C° 0 mm 6 mps 757 mmHg 80%
    20:00 +28°C° 0 mm 6 mps 757 mmHg 82%
    21:00 +28°C° 0 mm 5 mps 757 mmHg 83%
    22:00 +28°C° 0 mm 5 mps 757 mmHg 83%
    23:00 +28°C° 0 mm 5 mps 757 mmHg 84%

    23 November, Thursday

    Time Temperature Precipitation Wind Pressure Humidity
    00:00 +27°C° 0 mm 4 mps 757 mmHg 85%
    01:00 +27°C° 0 mm 4 mps 756 mmHg 85%
    02:00 +27°C° 0 mm 4 mps 756 mmHg 85%
    03:00 +27°C° 0 mm 4 mps 756 mmHg 85%
    04:00 +27°C° 0 mm 4 mps 756 mmHg 86%
    05:00 +27°C° 0 mm 4 mps 756 mmHg 86%
    06:00 +28°C° 0 mm 4 mps 756 mmHg 81%
    07:00 +29°C° 0 mm 4 mps 757 mmHg 77%
    08:00 +30°C° 0 mm 4 mps 758 mmHg 73%
    09:00 +32°C° 0 mm 4 mps 757 mmHg 68%
    10:00 +33°C° 0 mm 5 mps 757 mmHg 64%
    11:00 +34°C° 0 mm 5 mps 757 mmHg 60%
    12:00 +34°C° 0 mm 5 mps 756 mmHg 59%
    13:00 +34°C° 0 mm 5 mps 756 mmHg 59%
    14:00 +34°C° 0 mm 6 mps 755 mmHg 59%
    15:00 +32°C° 0 mm 5 mps 755 mmHg 64%
    16:00 +30°C° 0 mm 5 mps 755 mmHg 69%
    17:00 +29°C° 0 mm 5 mps 755 mmHg 75%
    18:00 +29°C° 0 mm 5 mps 756 mmHg 76%
    19:00 +28°C° 0 mm 5 mps 757 mmHg 78%
    20:00 +28°C° 0 mm 5 mps 758 mmHg 80%
    21:00 +28°C° 0 mm 4 mps 758 mmHg 81%
    22:00 +27°C° 0 mm 4 mps 758 mmHg 82%
    23:00 +27°C° 0 mm 4 mps 758 mmHg 83%

    24 November, Friday

    Time Temperature Precipitation Wind Pressure Humidity
    00:00 +27°C° 0 mm 4 mps 757 mmHg 84%
    01:00 +27°C° 0 mm 4 mps 757 mmHg 84%
    02:00 +27°C° 0 mm 3 mps 756 mmHg 85%
    03:00 +26°C° 0 mm 3 mps 756 mmHg 86%
    04:00 +26°C° 0 mm 3 mps 756 mmHg 87%
    05:00 +26°C° 0 mm 3 mps 757 mmHg 87%
    06:00 +27°C° 0 mm 4 mps 757 mmHg 83%
    07:00 +28°C° 0 mm 4 mps 758 mmHg 78%
    08:00 +29°C° 0 mm 4 mps 759 mmHg 73%
    09:00 +30°C° 0 mm 4 mps 758 mmHg 69%
    10:00 +32°C° 0 mm 5 mps 758 mmHg 65%
    11:00 +32°C° 0 mm 5 mps 758 mmHg 60%
    12:00 +33°C° 0 mm 5 mps 757 mmHg 59%
    13:00 +33°C° 0 mm 5 mps 756 mmHg 57%
    14:00 +33°C° 0 mm 6 mps 756 mmHg 55%
    15:00 +32°C° 0 mm 6 mps 756 mmHg 60%
    16:00 +30°C° 0 mm 5 mps 756 mmHg 66%
    17:00 +29°C° 0 mm 5 mps 756 mmHg 71%
    18:00 +28°C° 0 mm 5 mps 757 mmHg 74%
    19:00 +27°C° 0 mm 5 mps 758 mmHg 77%
    20:00 +27°C° 0 mm 5 mps 758 mmHg 80%
    21:00 +27°C° 0 mm 5 mps 758 mmHg 81%
    22:00 +26°C° 0 mm 5 mps 758 mmHg 82%
    23:00 +26°C° 0 mm 4 mps 758 mmHg 83%

    25 November, Saturday

    Time Temperature Precipitation Wind Pressure Humidity
    00:00 +26°C° 0 mm 4 mps 757 mmHg 83%
    01:00 +26°C° 0 mm 4 mps 757 mmHg 83%
    02:00 +26°C° 0 mm 4 mps 756 mmHg 83%
    03:00 +25°C° 0 mm 4 mps 757 mmHg 84%
    04:00 +25°C° 0 mm 4 mps 757 mmHg 85%
    05:00 +25°C° 0 mm 5 mps 757 mmHg 86%
    06:00 +26°C° 0 mm 5 mps 758 mmHg 82%
    07:00 +27°C° 0 mm 5 mps 758 mmHg 77%
    08:00 +28°C° 0 mm 5 mps 759 mmHg 73%
    09:00 +29°C° 0 mm 6 mps 759 mmHg 68%
    10:00 +30°C° 0 mm 6 mps 758 mmHg 62%
    11:00 +32°C° 0 mm 7 mps 758 mmHg 56%
    12:00 +33°C° 0 mm 7 mps 757 mmHg 55%
    13:00 +33°C° 0 mm 7 mps 756 mmHg 54%
    14:00 +33°C° 0 mm 7 mps 756 mmHg 52%
    15:00 +32°C° 0 mm 7 mps 756 mmHg 58%
    16:00 +29°C° 0 mm 7 mps 756 mmHg 64%
    17:00 +28°C° 0 mm 7 mps 756 mmHg 70%
    18:00 +28°C° 0 mm 7 mps 757 mmHg 72%
    19:00 +27°C° 0 mm 7 mps 758 mmHg 74%
    20:00 +27°C° 0 mm 7 mps 758 mmHg 76%
    21:00 +27°C° 0.1 mm 7 mps 758 mmHg 76%
    22:00 +27°C° 0.1 mm 7 mps 758 mmHg 76%
    23:00 +27°C° 0.1 mm 7 mps 758 mmHg 76%
    Show more